Wind_Speed
12 12 11 10 7 5 5 7 8 9 12 17 21 23 22 22 23 22 23 24 23 22 20 18 16 14 14 14 15 17 18 19 20 21 22 22 24 22 19 20 21 22 25 25 26
14 15 14 13 10 8 7 7 6 7 9 13 17 21 21 20 22 23 21 22 23 22 22 20 19 20 21 17 14 16 17 18 20 23 23 23 25 22 19 21 20 24 25 26 27
17 17 17 16 14 11 9 9 7 6 8 11 14 18 20 22 22 22 20 20 21 22 23 22 22 20 19 20 18 18 18 17 18 20 24 23 24 24 21 21 24 26 26 27 30
21 20 20 19 17 15 13 12 11 8 8 9 11 15 18 21 20 21 20 20 20 23 23 22 24 23 20 19 18 17 17 17 17 19 22 22 24 25 23 23 23 25 29 31 31
23 24 23 23 21 18 18 16 14 12 10 10 10 13 15 18 20 21 21 20 20 23 22 23 25 26 23 19 18 18 19 20 20 21 24 25 26 25 23 23 24 28 31 32 34
27 27 26 26 24 22 21 21 18 17 15 13 12 13 15 16 19 21 21 20 20 23 22 22 23 25 24 22 21 19 20 22 23 25 29 30 30 30 29 28 28 28 28 34 35
31 30 30 29 27 26 25 24 23 22 19 17 16 16 16 17 19 22 22 21 22 23 24 23 24 25 24 24 24 23 23 25 26 26 29 31 30 32 34 31 30 31 33 36 37
34 34 33 32 31 29 28 27 26 25 23 22 19 19 18 20 21 22 23 23 23 24 25 25 26 27 24 24 25 26 28 29 31 29 28 31 29 32 32 33 34 33 34 36 37
35 37 36 35 33 31 31 30 30 29 27 26 24 22 22 23 23 23 25 26 25 27 27 27 28 29 29 27 28 30 33 36 36 36 34 34 31 31 32 33 33 34 36 36 40
37 39 40 39 37 35 33 33 33 32 31 29 27 25 25 25 25 25 26 27 28 30 31 30 29 30 30 33 34 35 37 38 40 41 41 43 37 36 36 34 34 33 34 37 37
37 39 40 42 42 39 37 36 35 35 34 34 32 28 26 27 27 26 28 29 31 33 34 31 31 31 32 35 36 38 40 42 39 42 44 44 42 41 40 39 36 38 38 41 42
39 40 41 42 44 44 42 41 39 39 36 36 35 33 31 30 31 30 31 31 33 37 37 35 35 35 34 35 37 38 41 41 43 48 49 47 48 41 43 42 39 37 42 42 46
41 39 41 42 44 45 44 44 44 44 43 37 37 33 33 33 34 32 32 34 38 39 39 37 38 37 36 37 39 37 42 43 48 52 52 50 50 45 42 43 41 43 43 44 47
45 43 41 42 44 45 46 46 47 47 52 46 39 38 38 37 36 37 37 38 41 42 42 40 38 39 38 39 43 40 41 45 49 54 56 49 55 51 44 39 43 44 47 49 53
48 48 46 45 45 46 49 50 51 52 59 52 47 43 40 41 44 42 41 42 42 45 45 39 41 42 40 42 44 43 44 47 50 53 57 52 55 49 46 45 44 47 53 53 53
49 51 51 51 50 50 51 53 54 58 65 58 53 50 47 46 48 47 44 44 44 47 46 43 42 44 43 45 46 47 48 51 54 56 60 60 59 52 53 50 48 53 59 58 57
51 52 53 54 55 55 55 57 59 65 60 59 54 54 54 53 51 48 47 47 47 49 45 44 43 45 46 49 49 49 52 56 58 62 64 62 63 59 59 56 53 58 58 59 57
58 57 56 56 57 58 59 62 68 64 61 60 58 58 58 55 54 50 51 51 48 45 48 46 48 45 48 50 51 50 51 56 59 62 64 66 67 64 60 55 56 58 59 58 62
62 62 62 59 61 61 64 70 70 67 64 62 61 62 62 59 55 55 56 56 49 45 44 49 52 51 53 52 52 53 53 56 61 65 68 67 67 64 62 59 59 60 62 62 65
66 68 66 63 65 65 70 75 74 67 66 64 65 65 66 62 60 58 59 59 52 48 45 47 51 56 57 57 56 56 57 58 59 69 72 67 63 69 63 68 62 64 65 67 68
67 65 68 68 69 71 77 77 73 68 65 65 67 66 65 65 61 59 60 56 54 53 51 52 55 59 60 59 59 57 58 61 63 70 77 78 59 69 67 64 64 66 68 70 65
70 72 72 68 71 73 78 78 76 72 69 68 69 70 69 63 60 60 58 55 56 57 57 60 64 66 64 63 62 59 62 63 69 71 77 83 70 64 64 60 66 68 71 68 57
76 75 74 75 77 77 77 77 77 75 72 73 74 74 70 68 67 65 61 58 57 59 63 65 69 70 68 68 66 66 64 65 71 75 78 79 71 64 63 63 67 69 64 57 50
79 82 79 79 77 79 81 81 80 77 76 76 73 75 75 73 70 70 68 64 61 64 65 69 72 74 70 67 67 69 68 71 74 82 76 68 63 58 59 64 66 59 57 49 49
86 81 84 87 80 83 84 79 81 83 83 80 80 76 75 75 74 74 70 65 65 68 71 73 74 73 70 70 70 71 74 74 75 65 64 61 64 64 56 65 58 54 48 47 58
90 90 91 90 87 86 86 78 82 80 82 84 84 77 76 79 75 71 65 68 68 70 71 71 72 73 73 74 78 77 65 59 54 58 61 62 70 51 62 60 52 46 46 56 61
76 80 94 92 92 93 83 81 82 81 82 79 78 77 80 81 72 71 70 71 72 72 70 70 72 73 82 76 72 66 47 52 55 56 60 63 60 55 56 51 44 48 56 58 60
Wind_Direction
230 237 242 245 238 261 306 334 353 10 16 12 9 11 11 14 15 21 32 38 37 34 26 17 5 354 345 334 319 307 300 300 300 299 300 296 295 300 305 303 310 311 310 308 307
227 235 244 247 240 250 278 301 324 346 2 8 6 9 5 8 7 12 21 22 24 24 19 14 2 347 342 339 327 313 307 304 298 295 294 294 295 297 301 302 302 302 301 303 303
229 231 239 245 242 244 256 278 289 310 335 353 0 2 2 2 2 6 8 12 14 12 8 4 0 354 336 336 341 334 322 309 301 299 296 296 296 299 303 303 301 300 303 302 303
229 231 235 237 240 246 251 260 268 273 304 327 343 350 354 356 355 360 2 1 2 3 358 357 356 353 345 334 334 337 334 326 316 307 300 302 298 301 306 300 300 302 302 302 299
230 229 233 234 232 240 249 255 260 266 279 296 318 331 340 348 349 349 349 352 355 355 351 349 350 347 343 338 332 332 330 328 324 315 307 305 304 304 301 299 299 300 302 304 303
229 229 232 234 235 237 244 252 256 260 266 277 290 308 320 334 338 339 338 342 348 347 343 339 340 340 335 335 332 332 326 323 320 316 309 304 302 301 296 295 295 294 297 298 300
227 231 233 236 236 240 244 248 254 259 261 267 277 289 303 316 326 328 327 332 338 340 335 331 329 332 331 328 329 329 329 324 320 317 311 307 305 295 294 295 295 300 300 300 302
229 233 236 238 239 242 248 252 253 257 262 266 271 281 292 303 311 318 319 322 327 331 329 326 321 320 326 324 321 323 325 323 319 317 314 311 311 303 302 303 302 303 298 298 302
238 236 239 242 243 247 251 255 257 259 261 265 270 276 285 295 301 307 312 315 316 320 322 321 317 316 319 318 316 315 321 325 325 321 316 309 308 303 308 307 308 304 304 307 305
246 243 241 245 248 251 255 260 263 264 265 266 268 273 281 289 294 298 305 309 310 311 316 314 313 312 312 313 310 311 315 319 319 319 321 315 312 312 312 315 310 307 310 310 312
247 249 248 248 252 253 258 261 266 266 269 270 272 272 278 286 290 293 300 303 304 304 307 308 306 307 310 311 309 310 312 315 318 315 315 315 312 312 311 312 309 308 311 312 311
253 252 251 252 253 256 257 264 268 270 268 272 276 280 282 287 291 292 296 296 299 299 302 304 303 303 307 308 307 310 311 314 318 315 315 312 310 310 312 317 315 314 315 314 310
255 255 257 256 256 257 260 263 268 271 272 266 271 275 279 282 284 286 288 294 296 299 299 302 300 301 303 304 305 310 310 312 314 314 314 313 306 308 311 309 309 311 309 307 309
256 255 256 258 259 261 262 264 268 272 271 268 270 276 280 282 284 285 290 292 295 297 298 299 294 294 299 301 302 306 306 308 312 312 311 317 306 311 317 312 311 312 312 307 308
257 257 258 259 261 263 265 266 268 272 272 273 275 277 280 281 284 286 288 290 294 297 297 298 295 295 297 298 299 303 304 305 311 315 310 312 307 307 317 310 312 314 312 310 311
259 260 259 260 260 262 264 267 269 269 270 276 280 282 283 281 282 285 287 289 293 295 296 296 293 292 295 295 298 301 303 304 308 312 310 311 311 311 316 309 312 313 312 313 314
253 258 261 261 261 262 264 265 268 265 270 274 280 283 283 283 284 286 288 291 293 295 295 291 289 290 292 293 297 302 304 305 306 310 311 312 307 310 309 313 313 312 314 311 313
256 254 256 260 262 263 264 265 264 268 272 275 279 280 281 283 284 286 287 290 293 293 292 290 288 287 289 293 298 301 302 303 304 307 306 306 305 308 309 314 312 312 310 311 313
259 261 260 259 260 262 264 263 266 268 270 276 279 279 280 281 284 287 287 288 292 288 287 288 289 290 292 294 298 300 302 303 304 307 307 305 305 307 313 317 312 312 310 310 311
255 257 259 263 263 262 261 262 265 268 274 276 275 276 279 282 284 286 287 288 288 287 288 286 286 287 290 293 297 298 302 303 303 304 306 303 301 303 315 317 313 311 311 312 314
260 256 256 259 261 263 263 265 266 269 272 274 275 276 278 281 286 286 284 287 288 290 290 289 286 287 288 293 293 296 299 300 300 304 307 307 307 305 312 315 313 311 312 312 313
257 260 262 259 260 264 264 266 269 270 271 272 275 278 278 281 280 279 283 284 288 290 291 290 288 287 289 292 293 297 297 299 299 305 306 305 306 310 308 310 306 307 309 310 309
258 258 259 261 261 264 267 269 270 270 272 273 274 275 278 277 279 282 283 284 286 287 287 286 285 287 290 292 297 295 298 299 299 301 304 306 302 305 305 306 303 305 307 305 306
261 260 258 262 262 263 265 267 270 272 272 271 270 271 274 277 278 279 279 281 281 281 281 280 282 285 287 292 292 293 295 297 297 299 303 294 303 301 304 299 303 308 304 306 306
259 262 262 262 265 268 268 270 270 270 272 271 271 274 275 274 275 275 277 279 279 279 278 280 283 285 285 287 289 290 291 292 296 300 294 298 297 304 298 301 305 304 303 305 311
263 263 265 265 265 265 267 269 270 271 273 273 272 272 271 272 274 275 275 273 274 275 277 279 283 283 283 285 288 292 291 296 293 295 294 296 300 300 299 301 303 302 300 307 308
265 265 260 265 265 266 267 271 272 270 271 277 270 269 270 276 269 270 271 271 273 274 277 281 284 285 288 291 290 287 300 289 291 295 295 295 301 300 300 301 300 299 307 307 306
Height
5905 5905 5906 5906 5906 5905 5904 5903 5902 5901 5900 5898 5897 5895 5893 5890 5888 5886 5882 5880 5878 5875 5873 5871 5869 5867 5865 5862 5860 5859 5857 5855 5853 5851 5848 5847 5846 5847 5845 5842 5839 5835 5832 5830 5828
5902 5903 5904 5904 5903 5903 5902 5901 5901 5899 5898 5896 5895 5893 5891 5889 5887 5884 5882 5879 5876 5874 5872 5869 5867 5863 5861 5860 5858 5855 5853 5851 5849 5846 5844 5843 5840 5841 5840 5837 5833 5830 5827 5825 5823
5898 5899 5900 5901 5901 5900 5899 5899 5898 5897 5896 5894 5892 5891 5889 5887 5885 5882 5880 5877 5875 5872 5869 5866 5864 5862 5859 5856 5854 5851 5849 5846 5845 5842 5838 5837 5835 5833 5833 5831 5828 5824 5822 5821 5818
5894 5895 5896 5897 5898 5898 5897 5896 5895 5894 5893 5891 5890 5888 5887 5884 5884 5880 5878 5876 5873 5870 5867 5864 5861 5859 5857 5854 5851 5848 5845 5842 5840 5836 5832 5831 5829 5827 5826 5824 5821 5819 5816 5814 5809
5888 5890 5891 5892 5893 5893 5893 5892 5891 5890 5890 5889 5887 5885 5884 5882 5880 5877 5875 5873 5870 5867 5864 5861 5858 5855 5853 5852 5849 5846 5842 5839 5835 5831 5827 5824 5823 5822 5821 5819 5816 5813 5810 5807 5804
5884 5885 5885 5887 5888 5888 5888 5888 5887 5886 5885 5885 5884 5882 5881 5879 5876 5874 5872 5869 5867 5864 5861 5858 5856 5853 5850 5847 5845 5843 5839 5836 5832 5828 5823 5820 5818 5816 5814 5813 5811 5808 5804 5799 5795
5877 5879 5880 5881 5882 5883 5883 5883 5882 5881 5881 5880 5879 5878 5877 5875 5873 5871 5868 5866 5863 5861 5857 5854 5852 5850 5846 5843 5840 5838 5835 5831 5828 5825 5819 5813 5813 5809 5806 5805 5804 5802 5798 5794 5789
5871 5872 5873 5875 5876 5877 5877 5877 5877 5876 5875 5875 5875 5874 5872 5870 5868 5866 5864 5861 5859 5857 5854 5851 5847 5845 5842 5838 5835 5832 5830 5827 5821 5818 5814 5808 5807 5800 5798 5797 5795 5793 5788 5785 5780
5864 5865 5867 5868 5869 5870 5870 5870 5870 5870 5869 5869 5869 5869 5867 5865 5863 5861 5859 5856 5854 5852 5850 5847 5843 5839 5836 5834 5830 5827 5823 5818 5814 5809 5806 5803 5801 5797 5793 5789 5786 5782 5778 5774 5769
5857 5858 5860 5861 5862 5863 5863 5863 5863 5864 5863 5862 5863 5864 5862 5861 5857 5855 5853 5851 5848 5846 5844 5842 5837 5833 5830 5827 5824 5820 5816 5814 5807 5801 5796 5790 5789 5786 5782 5778 5774 5770 5767 5762 5758
5849 5850 5852 5853 5854 5855 5856 5856 5857 5856 5856 5855 5855 5856 5855 5853 5852 5850 5847 5845 5842 5840 5838 5836 5832 5828 5824 5819 5816 5812 5808 5803 5801 5795 5788 5783 5779 5776 5772 5768 5763 5760 5756 5751 5745
5841 5842 5843 5844 5845 5846 5847 5847 5847 5846 5849 5847 5847 5847 5847 5845 5844 5842 5841 5839 5836 5833 5830 5829 5824 5821 5817 5812 5808 5804 5798 5795 5791 5784 5779 5774 5767 5769 5763 5759 5753 5749 5744 5739 5733
5832 5833 5835 5836 5836 5837 5838 5838 5836 5836 5835 5842 5840 5841 5840 5838 5836 5835 5834 5831 5828 5826 5823 5821 5815 5811 5808 5803 5798 5797 5789 5785 5779 5772 5769 5765 5753 5757 5756 5749 5745 5740 5735 5728 5721
5823 5824 5825 5826 5829 5828 5828 5828 5826 5826 5820 5828 5833 5833 5832 5829 5828 5826 5825 5823 5819 5815 5813 5811 5808 5802 5799 5794 5789 5788 5784 5776 5771 5764 5756 5756 5738 5744 5745 5738 5733 5727 5720 5715 5709
5814 5814 5816 5816 5817 5819 5819 5817 5816 5816 5805 5815 5820 5822 5823 5822 5819 5818 5815 5812 5810 5805 5804 5803 5795 5791 5789 5785 5780 5777 5772 5765 5761 5755 5745 5747 5733 5728 5730 5724 5720 5715 5707 5701 5694
5803 5804 5805 5805 5806 5807 5806 5805 5806 5803 5793 5803 5808 5811 5811 5809 5808 5806 5805 5802 5800 5796 5793 5791 5786 5781 5778 5774 5770 5766 5761 5754 5749 5742 5734 5729 5722 5718 5715 5710 5707 5699 5690 5685 5680
5788 5790 5792 5794 5795 5794 5794 5792 5791 5783 5791 5792 5797 5796 5795 5795 5794 5793 5792 5790 5789 5783 5783 5780 5777 5772 5769 5764 5759 5755 5749 5740 5736 5730 5721 5715 5705 5704 5700 5696 5692 5683 5677 5671 5667
5775 5776 5777 5780 5781 5781 5780 5778 5769 5775 5780 5781 5783 5782 5780 5780 5781 5780 5779 5778 5777 5773 5767 5765 5763 5763 5758 5753 5748 5746 5741 5730 5722 5718 5711 5704 5694 5691 5687 5685 5680 5671 5663 5658 5651
5761 5763 5765 5765 5765 5766 5765 5758 5759 5766 5770 5772 5770 5766 5765 5766 5768 5766 5765 5763 5765 5764 5761 5752 5747 5746 5742 5740 5737 5732 5729 5722 5704 5703 5696 5690 5682 5675 5673 5672 5662 5656 5647 5641 5634
5744 5745 5749 5750 5749 5749 5745 5740 5744 5756 5756 5757 5756 5754 5751 5753 5754 5754 5750 5748 5749 5750 5747 5743 5737 5731 5729 5725 5724 5718 5715 5708 5699 5685 5681 5679 5671 5660 5661 5652 5648 5641 5634 5627 5619
5726 5726 5733 5734 5732 5732 5726 5726 5734 5740 5744 5743 5739 5739 5740 5739 5741 5740 5735 5737 5734 5731 5730 5728 5724 5721 5715 5714 5709 5708 5703 5696 5686 5675 5660 5654 5661 5648 5646 5640 5634 5625 5620 5613 5607
5709 5710 5714 5717 5715 5710 5710 5717 5722 5725 5728 5726 5725 5725 5725 5727 5725 5722 5724 5725 5721 5717 5714 5709 5703 5699 5699 5696 5695 5694 5688 5682 5668 5664 5653 5638 5635 5639 5632 5629 5618 5612 5607 5600 5593
5689 5692 5693 5693 5694 5696 5699 5701 5703 5705 5711 5713 5710 5709 5711 5709 5705 5709 5711 5712 5708 5704 5698 5693 5685 5682 5684 5682 5679 5673 5673 5666 5653 5646 5641 5628 5617 5620 5616 5615 5606 5601 5595 5588 5582
5670 5671 5673 5669 5679 5681 5682 5685 5687 5692 5691 5690 5694 5693 5692 5694 5694 5692 5691 5692 5693 5689 5683 5674 5670 5667 5670 5669 5661 5659 5658 5649 5638 5631 5626 5614 5609 5616 5603 5594 5589 5584 5578 5574 5569
5647 5655 5652 5652 5658 5659 5662 5673 5670 5669 5671 5674 5673 5678 5678 5675 5675 5672 5676 5674 5673 5670 5664 5657 5656 5652 5654 5651 5644 5646 5645 5636 5628 5619 5603 5606 5596 5594 5586 5578 5575 5569 5564 5560 5553
5627 5637 5633 5639 5637 5636 5638 5649 5647 5652 5653 5657 5654 5660 5656 5654 5658 5655 5655 5653 5652 5648 5646 5643 5639 5635 5634 5634 5627 5626 5625 5624 5612 5605 5591 5586 5582 5583 5570 5564 5560 5556 5549 5544 5536
5606 5614 5606 5615 5616 5611 5624 5628 5629 5634 5633 5635 5637 5635 5634 5638 5637 5634 5631 5632 5632 5632 5630 5627 5622 5617 5610 5614 5605 5604 5614 5604 5598 5592 5579 5571 5570 5565 5555 5551 5548 5542 5537 5529 5520